LA5PPA-1 Weather Reports


Display with metric or nautical units.
time (UTC)temp
F
wind
direction
speed
MPH
gust
MPH
rain 1hr
in
rain 24hr
in
rain mn
in
humidity
%
barometer
mb
20260906011341 39 223 0.0 0.0 0.00 0.01 0.00 91 1019.1
20260906010841 39 223 0.0 0.0 0.00 0.01 0.00 91 1019.0
20260906010341 39 223 0.0 0.0 0.00 0.01 0.00 91 1019.0
20260906010242 39 223 0.0 0.0 0.00 0.01 0.00 90 1019.0
20260906005841 39 223 0.0 0.0 0.00 0.01 0.00 90 1019.0
20260906005341 39 223 0.0 0.0 0.00 0.01 0.00 90 1018.9
20260906005142 39 223 0.0 0.0 0.00 0.01 0.00 90 1018.9
20260906004841 39 223 0.0 0.0 0.00 0.01 0.00 89 1018.9
20260906004341 39 223 0.0 0.0 0.00 0.01 0.00 89 1018.9
20260906004042 39 223 0.0 0.0 0.00 0.01 0.00 89 1018.9
20260906003841 39 223 0.0 0.0 0.00 0.01 0.00 89 1018.7
20260906003341 40 223 0.0 0.0 0.00 0.01 0.00 89 1018.6
20260906002942 40 223 0.0 0.0 0.00 0.01 0.00 89 1018.6
20260906002841 40 223 0.0 0.0 0.00 0.01 0.00 89 1018.6
20260906002341 40 223 0.0 0.0 0.00 0.01 0.00 89 1018.6
20260906001841 40 223 0.0 0.0 0.00 0.01 0.00 89 1018.5
20260906001341 40 223 0.0 0.0 0.00 0.01 0.00 89 1018.4
20260906000841 40 223 0.0 0.0 0.00 0.01 0.00 89 1018.4
20260906000742 40 223 0.0 0.0 0.00 0.01 0.00 89 1018.4
20260906000341 40 223 0.0 0.0 0.00 0.01 0.00 89 1018.4
20260905235841 40 223 0.0 0.0 0.00 0.01 0.00 89 1018.3
20260905235642 40 223 0.0 1.0 0.00 0.01 0.00 89 1018.3
20260905235341 40 223 0.0 1.0 0.00 0.01 0.00 89 1018.3
20260905234841 40 300 0.0 0.0 0.00 0.01 0.00 88 1018.3
20260905234542 40 300 0.0 0.0 0.00 0.01 0.00 88 1018.2
20260905234341 41 300 0.0 0.0 0.00 0.01 0.00 88 1018.2
20260905233841 41 300 0.0 1.0 0.00 0.01 0.00 89 1018.2
20260905233444 41 284 1.0 2.0 0.00 0.01 0.00 89 1018.1
20260905233341 41 341 0.0 2.0 0.00 0.01 0.00 89 1018.1
20260905232841 40 233 0.0 1.0 0.00 0.01 0.00 89 1018.1
20260905232341 40 102 0.0 0.0 0.00 0.01 0.00 88 1018.1
20260905231841 41 102 0.0 1.0 0.00 0.01 0.00 88 1017.8
20260905231341 41 295 0.0 3.0 0.00 0.01 0.00 87 1017.7
20260905231242 41 295 0.0 3.0 0.00 0.01 0.00 88 1017.8
20260905230841 41 261 0.0 2.0 0.00 0.01 0.00 88 1017.7
20260905230341 41 285 1.0 2.0 0.00 0.01 0.00 88 1017.7
20260905230142 41 253 0.0 2.0 0.00 0.01 0.00 88 1017.6
20260905225841 41 202 0.0 1.0 0.00 0.01 0.00 89 1017.5
20260905225341 41 299 0.0 2.0 0.00 0.01 0.00 90 1017.5
20260905225042 41 302 0.0 3.0 0.00 0.01 0.00 90 1017.4
20260905224841 41 329 0.0 3.0 0.00 0.01 0.00 91 1017.4
20260905224341 40 289 0.0 3.0 0.00 0.01 0.00 91 1017.4
20260905223942 40 126 0.0 0.0 0.00 0.01 0.00 90 1017.4
20260905223841 40 126 0.0 0.0 0.00 0.01 0.00 90 1017.5
20260905223341 40 126 0.0 0.0 0.00 0.01 0.00 90 1017.4
20260905222841 40 126 0.0 0.0 0.00 0.01 0.00 89 1017.3
20260905222341 40 126 0.0 0.0 0.00 0.01 0.00 89 1017.2
20260905221841 39 126 0.0 0.0 0.00 0.01 0.00 89 1017.2
20260905221742 39 126 0.0 0.0 0.00 0.01 0.00 89 1017.2
20260905221341 40 126 0.0 0.0 0.00 0.01 0.00 89 1017.1
20260905220841 40 126 0.0 1.0 0.00 0.01 0.00 88 1017.1
20260905220642 40 126 0.0 3.0 0.00 0.01 0.00 88 1016.9
20260905220341 40 132 1.0 3.0 0.00 0.01 0.00 88 1016.9
20260905215841 40 102 2.0 3.0 0.00 0.01 0.00 88 1016.8
20260905215542 40 11 0.0 0.0 0.00 0.01 0.00 88 1016.7
20260905215341 40 11 0.0 0.0 0.00 0.01 0.00 87 1016.7
20260905214841 40 11 0.0 0.0 0.00 0.01 0.01 87 1016.6
20260905214442 40 11 0.0 0.0 0.00 0.01 0.01 87 1016.5
20260905214341 40 11 0.0 0.0 0.00 0.01 0.01 87 1016.5
20260905213841 41 11 0.0 2.0 0.00 0.01 0.01 87 1016.5
20260905213341 41 261 0.0 0.0 0.00 0.01 0.01 87 1016.5
20260905212841 41 261 0.0 0.0 0.00 0.01 0.01 86 1016.4
20260905212341 41 261 0.0 0.0 0.00 0.01 0.01 86 1016.4
20260905212242 41 261 0.0 0.0 0.00 0.01 0.01 86 1016.4
20260905211841 41 261 0.0 0.0 0.00 0.01 0.01 86 1016.3
20260905211341 42 261 0.0 0.0 0.00 0.01 0.01 85 1016.2
20260905211142 42 261 0.0 0.0 0.00 0.01 0.01 85 1016.2
20260905210841 42 261 0.0 0.0 0.00 0.01 0.01 85 1016.2
20260905210341 42 261 0.0 0.0 0.00 0.01 0.01 85 1016.2
20260905210042 42 261 0.0 0.0 0.00 0.01 0.01 86 1016.1
20260905205841 42 261 0.0 2.0 0.00 0.01 0.01 87 1016.1
20260905205341 41 326 1.0 4.0 0.00 0.01 0.01 88 1015.9
20260905204944 41 336 0.0 1.0 0.00 0.01 0.01 86 1015.9
20260905204841 41 336 0.0 1.0 0.00 0.01 0.01 86 1015.8
20260905204341 41 85 0.0 2.0 0.00 0.01 0.01 86 1015.7
20260905203841 41 91 0.0 0.0 0.00 0.01 0.01 85 1015.7
20260905203341 42 91 0.0 0.0 0.00 0.01 0.01 85 1015.7
20260905202841 42 91 0.0 1.0 0.00 0.01 0.01 85 1015.6
20260905202742 42 91 0.0 2.0 0.00 0.01 0.01 85 1015.6
20260905202341 42 108 1.0 3.0 0.00 0.01 0.01 84 1015.6
20260905201841 42 125 1.0 1.0 0.00 0.01 0.01 84 1015.5
20260905201642 42 125 0.0 2.0 0.00 0.01 0.01 84 1015.5
20260905201341 43 113 0.0 2.0 0.00 0.01 0.01 83 1015.4
20260905200841 43 123 1.0 2.0 0.00 0.01 0.01 82 1015.3
20260905200542 43 98 1.0 2.0 0.00 0.01 0.01 82 1015.3
20260905200341 44 137 1.0 2.0 0.00 0.01 0.01 81 1015.3
20260905195841 44 120 1.0 1.0 0.00 0.01 0.01 81 1015.3
20260905195442 44 340 0.0 0.0 0.00 0.01 0.01 80 1015.2
20260905195341 44 340 0.0 0.0 0.00 0.01 0.01 79 1015.2
20260905194841 45 340 0.0 2.0 0.00 0.01 0.01 79 1015.0
20260905194341 45 350 2.0 2.0 0.00 0.01 0.01 79 1014.9
20260905193841 45 327 0.0 4.0 0.00 0.01 0.01 79 1014.8
20260905193341 45 326 0.0 3.0 0.00 0.01 0.01 79 1014.8
20260905193242 45 337 0.0 3.0 0.00 0.01 0.01 80 1014.8
20260905192841 45 15 0.0 0.0 0.00 0.01 0.01 80 1014.8
20260905192341 46 15 0.0 3.0 0.00 0.01 0.01 79 1014.7
20260905192142 46 54 0.0 3.0 0.00 0.01 0.01 79 1014.7
20260905191841 46 18 0.0 1.0 0.00 0.01 0.01 79 1014.6
20260905191341 46 323 0.0 0.0 0.00 0.01 0.01 78 1014.6
20260905191042 46 323 0.0 0.0 0.00 0.01 0.01 78 1014.4
20260905190841 47 323 0.0 0.0 0.00 0.01 0.01 78 1014.4
20260905190341 47 323 0.0 1.0 0.00 0.01 0.01 77 1014.4
20260905185942 47 7 0.0 0.0 0.00 0.01 0.01 76 1014.4
20260905185841 47 7 0.0 0.0 0.00 0.01 0.01 76 1014.4
20260905185341 47 7 0.0 3.0 0.00 0.01 0.01 75 1014.4
20260905184841 47 319 0.0 2.0 0.00 0.01 0.01 74 1014.3
20260905184341 47 351 0.0 5.0 0.00 0.01 0.01 74 1014.3
20260905183841 47 305 1.0 3.0 0.00 0.01 0.01 74 1014.0
20260905183742 47 331 1.0 3.0 0.00 0.01 0.01 74 1014.0
20260905183341 47 329 1.0 2.0 0.00 0.01 0.01 77 1013.8
20260905182841 47 1 0.0 1.0 0.00 0.01 0.01 77 1013.7
20260905182642 47 307 0.0 0.0 0.00 0.01 0.01 77 1013.7
20260905182341 47 36 0.0 0.0 0.00 0.01 0.01 78 1013.6
20260905181841 48 36 0.0 0.0 0.00 0.01 0.01 78 1013.5
20260905181542 48 36 0.0 0.0 0.00 0.01 0.01 79 1013.4
20260905181341 48 36 0.0 0.0 0.00 0.01 0.01 79 1013.3
20260905180841 48 36 0.0 0.0 0.00 0.01 0.01 79 1013.3
20260905180442 48 36 0.0 0.0 0.00 0.01 0.01 79 1013.3
20260905180341 48 36 0.0 0.0 0.00 0.01 0.01 79 1013.1
20260905175841 48 36 0.0 0.0 0.00 0.01 0.01 79 1013.1
20260905175341 49 36 0.0 0.0 0.00 0.01 0.01 78 1012.9
20260905174841 49 36 0.0 0.0 0.00 0.01 0.01 77 1012.9
20260905174341 49 36 0.0 0.0 0.00 0.01 0.01 76 1012.7
20260905174242 49 36 0.0 0.0 0.00 0.01 0.01 76 1012.8
20260905173841 49 36 0.0 1.0 0.00 0.01 0.01 74 1012.7
20260905173341 49 1 0.0 1.0 0.01 0.01 0.01 70 1012.6
20260905173142 49 52 0.0 1.0 0.01 0.01 0.01 75 1012.5
20260905172841 49 338 0.0 0.0 0.01 0.01 0.01 76 1012.5
20260905172341 49 338 0.0 0.0 0.01 0.01 0.01 75 1012.4
20260905172043 49 338 0.0 0.0 0.01 0.01 0.01 74 1012.4
20260905171841 49 338 0.0 0.0 0.01 0.01 0.01 74 1012.2
20260905171341 49 338 0.0 0.0 0.01 0.01 0.01 74 1012.2
20260905170942 49 338 0.0 0.0 0.01 0.01 0.01 73 1012.1
20260905170841 49 338 0.0 2.0 0.01 0.01 0.01 72 1012.0
20260905170341 50 37 0.0 1.0 0.01 0.01 0.01 72 1011.9
20260905165841 50 43 0.0 3.0 0.01 0.01 0.01 72 1011.9
20260905165341 49 52 0.0 1.0 0.01 0.01 0.01 71 1011.9
20260905164841 49 334 0.0 0.0 0.01 0.01 0.01 71 1011.8
20260905164743 49 334 0.0 0.0 0.01 0.01 0.01 71 1011.9
20260905164341 49 334 0.0 2.0 0.01 0.01 0.01 70 1011.8
20260905163841 49 343 0.0 6.0 0.01 0.01 0.01 69 1011.9
20260905163643 50 320 4.0 5.0 0.01 0.01 0.01 68 1011.9
20260905163341 50 315 0.0 5.0 0.00 0.00 0.00 66 1011.9
20260905162842 51 306 4.0 4.0 0.00 0.00 0.00 63 1011.7
20260905162543 51 2 0.0 2.0 0.00 0.00 0.00 62 1011.6
20260905162342 51 19 2.0 2.0 0.00 0.00 0.00 62 1011.5
20260905161842 51 12 0.0 1.0 0.00 0.00 0.00 60 1011.2
20260905161443 52 45 0.0 0.0 0.00 0.00 0.00 59 1011.2
20260905161342 52 45 0.0 0.0 0.00 0.00 0.00 59 1011.1
20260905160842 52 45 0.0 0.0 0.00 0.00 0.00 57 1010.9
20260905160342 52 45 0.0 2.0 0.00 0.00 0.00 57 1010.8
20260905155842 52 49 0.0 2.0 0.00 0.00 0.00 58 1010.8
20260905155342 52 21 0.0 3.0 0.00 0.00 0.00 58 1010.7
20260905155243 52 21 0.0 3.0 0.00 0.00 0.00 57 1010.7
20260905154842 52 12 0.0 5.0 0.00 0.00 0.00 59 1010.6
20260905154342 52 1 0.0 0.0 0.00 0.00 0.00 60 1010.4
20260905154143 52 1 0.0 0.0 0.00 0.00 0.00 59 1010.4
20260905153842 52 1 0.0 0.0 0.00 0.00 0.00 59 1010.4
20260905153342 52 1 0.0 2.0 0.00 0.00 0.00 58 1010.3
20260905153043 52 14 0.0 2.0 0.00 0.00 0.00 58 1010.3
20260905152842 52 303 0.0 1.0 0.00 0.00 0.00 57 1010.3
20260905152342 53 15 0.0 3.0 0.00 0.00 0.00 57 1010.3
20260905151943 53 15 0.0 6.0 0.00 0.00 0.00 56 1010.2
20260905151842 53 49 3.0 6.0 0.00 0.00 0.00 55 1010.2
20260905151342 54 35 0.0 6.0 0.00 0.00 0.00 54 1010.1
20260905150842 54 92 1.0 5.0 0.00 0.00 0.00 54 1010.0
20260905150342 55 338 0.0 1.0 0.00 0.00 0.00 50 1009.9
20260905145842 55 310 0.0 4.0 0.00 0.00 0.00 51 1009.8
20260905145743 55 310 0.0 4.0 0.00 0.00 0.00 51 1009.8
20260905145342 55 306 0.0 3.0 0.00 0.00 0.00 55 1009.8
20260905144842 54 322 0.0 1.0 0.00 0.00 0.00 57 1009.8
20260905144643 54 330 0.0 0.0 0.00 0.00 0.00 57 1009.7
20260905144342 54 330 0.0 2.0 0.00 0.00 0.00 57 1009.8
20260905143842 54 309 2.0 3.0 0.00 0.00 0.00 56 1009.7
20260905143543 54 315 0.0 2.0 0.00 0.00 0.00 56 1009.6
20260905143342 54 67 0.0 0.0 0.00 0.00 0.00 55 1009.7
20260905142842 55 67 0.0 1.0 0.00 0.00 0.00 57 1009.6
20260905142443 55 29 0.0 3.0 0.00 0.00 0.00 57 1009.6
20260905142342 54 316 0.0 3.0 0.00 0.00 0.00 58 1009.4
20260905141842 54 275 0.0 4.0 0.00 0.00 0.00 59 1009.4
20260905141342 54 292 0.0 1.0 0.00 0.00 0.00 60 1009.3
20260905140842 54 302 0.0 0.0 0.00 0.00 0.00 61 1009.2
20260905140342 54 302 0.0 2.0 0.00 0.00 0.00 59 1009.2
20260905140243 55 302 0.0 2.0 0.00 0.00 0.00 58 1009.2
20260905135842 55 309 1.0 3.0 0.00 0.00 0.00 55 1009.1
20260905135342 55 354 0.0 7.0 0.00 0.00 0.00 58 1009.0
20260905135143 55 354 0.0 7.0 0.00 0.00 0.00 58 1009.0
20260905134842 55 334 1.0 4.0 0.00 0.00 0.00 60 1009.0
20260905134342 54 281 0.0 5.0 0.00 0.00 0.00 62 1008.9
20260905134043 53 319 0.0 4.0 0.00 0.00 0.00 63 1008.8
20260905133842 53 319 0.0 4.0 0.00 0.00 0.00 62 1008.9
20260905133342 52 295 0.0 7.0 0.00 0.00 0.00 61 1008.9
20260905132943 53 322 5.0 7.0 0.00 0.00 0.00 59 1008.8
20260905132842 53 317 4.0 7.0 0.00 0.00 0.00 59 1008.8
20260905132342 53 352 0.0 6.0 0.00 0.00 0.00 62 1008.7
20260905131842 53 344 4.0 5.0 0.00 0.00 0.00 63 1008.7
20260905131342 53 312 1.0 9.0 0.00 0.00 0.00 65 1008.7
20260905130842 52 289 1.0 4.0 0.00 0.00 0.00 67 1008.5
20260905130743 52 309 0.0 4.0 0.00 0.00 0.00 68 1008.7
20260905130342 52 288 0.0 10.0 0.00 0.00 0.00 67 1008.5
20260905125842 53 313 9.0 11.0 0.00 0.00 0.00 61 1008.4
20260905125643 53 322 5.0 6.0 0.00 0.00 0.00 63 1008.4
20260905125342 53 305 2.0 7.0 0.00 0.00 0.00 62 1008.4
20260905124842 53 295 7.0 7.0 0.00 0.00 0.00 64 1008.3
20260905124544 53 293 5.0 7.0 0.00 0.00 0.00 66 1008.2
20260905124342 52 270 0.0 1.0 0.00 0.00 0.00 68 1008.3
20260905123842 52 352 0.0 0.0 0.00 0.00 0.00 65 1008.2
20260905123443 52 352 0.0 3.0 0.00 0.00 0.00 65 1008.2
20260905123342 52 338 0.0 3.0 0.00 0.00 0.00 66 1008.2
20260905122842 51 268 0.0 2.0 0.00 0.00 0.00 69 1008.1
20260905122342 51 292 0.0 1.0 0.00 0.00 0.00 70 1008.1
20260905121842 50 322 0.0 0.0 0.00 0.00 0.00 70 1008.1
20260905121342 50 315 0.0 0.0 0.00 0.00 0.00 70 1008.1
20260905121243 50 315 0.0 2.0 0.00 0.00 0.00 70 1008.0
20260905120842 50 315 0.0 2.0 0.00 0.00 0.00 70 1008.0
20260905120342 50 277 0.0 7.0 0.00 0.00 0.00 70 1007.9
20260905120143 50 317 3.0 7.0 0.00 0.00 0.00 70 1007.9
20260905115842 50 313 0.0 4.0 0.00 0.00 0.00 71 1007.9
20260905115342 50 306 1.0 6.0 0.00 0.00 0.00 68 1007.8
20260905115043 51 330 1.0 6.0 0.00 0.00 0.00 67 1007.6
20260905114842 51 302 2.0 5.0 0.00 0.00 0.00 65 1007.6
20260905114342 52 147 1.0 3.0 0.00 0.00 0.00 65 1007.5
20260905113943 51 4 0.0 4.0 0.00 0.00 0.00 64 1007.5
20260905113842 51 4 0.0 4.0 0.00 0.00 0.00 64 1007.5
20260905113342 51 323 0.0 3.0 0.00 0.00 0.00 63 1007.5
20260905112842 51 315 0.0 2.0 0.00 0.00 0.00 65 1007.5
20260905112342 51 54 0.0 2.0 0.00 0.00 0.00 68 1007.4
20260905111842 50 2 1.0 4.0 0.00 0.00 0.00 67 1007.4
20260905111743 50 337 0.0 4.0 0.00 0.00 0.00 67 1007.4
20260905111342 50 315 0.0 4.0 0.00 0.00 0.00 67 1007.4
20260905110842 50 309 0.0 5.0 0.00 0.00 0.00 69 1007.4
20260905110643 50 336 0.0 5.0 0.00 0.00 0.00 71 1007.3
20260905110342 50 299 0.0 4.0 0.00 0.00 0.00 70 1007.3
20260905105842 50 334 0.0 2.0 0.00 0.00 0.00 70 1007.2
20260905105543 50 277 0.0 6.0 0.00 0.00 0.00 67 1007.1
20260905105342 50 277 0.0 6.0 0.00 0.00 0.00 66 1007.1
20260905104842 50 358 0.0 8.0 0.00 0.00 0.00 67 1007.0
20260905104443 51 330 3.0 4.0 0.00 0.00 0.00 70 1006.9
20260905104342 51 277 2.0 4.0 0.00 0.00 0.00 70 1007.0
20260905103842 50 333 0.0 6.0 0.00 0.00 0.00 71 1007.0
20260905103342 50 277 0.0 0.0 0.00 0.00 0.00 70 1006.9
20260905102842 50 277 0.0 8.0 0.00 0.00 0.00 69 1006.7
20260905102342 50 322 3.0 7.0 0.00 0.00 0.00 70 1006.7
20260905102243 50 317 3.0 7.0 0.00 0.00 0.00 69 1006.6
20260905101842 50 319 2.0 3.0 0.00 0.00 0.00 70 1006.6
20260905101342 50 330 3.0 5.0 0.00 0.00 0.00 67 1006.5
20260905101143 50 326 1.0 5.0 0.00 0.00 0.00 71 1006.5
20260905100842 50 298 3.0 3.0 0.00 0.00 0.00 77 1006.5
20260905100342 49 255 1.0 3.0 0.00 0.00 0.00 78 1006.4
20260905100043 49 277 0.0 6.0 0.00 0.00 0.00 77 1006.4
20260905095842 49 285 2.0 6.0 0.00 0.00 0.00 77 1006.5
20260905095342 49 293 2.0 6.0 0.00 0.00 0.00 77 1006.3
20260905094943 49 285 0.0 5.0 0.00 0.00 0.00 77 1006.3
20260905094842 49 299 1.0 5.0 0.00 0.00 0.00 76 1006.3
20260905094342 49 317 0.0 7.0 0.00 0.00 0.00 77 1006.2
20260905093842 49 300 0.0 0.0 0.00 0.00 0.00 77 1006.1
20260905093342 49 300 0.0 2.0 0.00 0.00 0.00 77 1006.1
20260905092842 50 313 2.0 5.0 0.00 0.00 0.00 77 1006.0
20260905092743 50 289 3.0 5.0 0.00 0.00 0.00 77 1006.0
20260905092342 49 202 1.0 4.0 0.00 0.00 0.00 78 1006.0
20260905091842 49 289 3.0 4.0 0.00 0.00 0.00 80 1006.0
20260905091643 48 243 0.0 1.0 0.00 0.00 0.00 81 1006.0
20260905091342 48 300 0.0 4.0 0.00 0.00 0.00 80 1006.0
20260905090842 47 309 0.0 6.0 0.00 0.00 0.00 80 1005.9
20260905090543 47 316 0.0 6.0 0.00 0.00 0.00 81 1005.9
20260905090342 47 305 0.0 3.0 0.00 0.00 0.00 81 1005.9
20260905085842 47 265 0.0 5.0 0.00 0.00 0.00 84 1005.7
20260905085443 46 271 2.0 2.0 0.00 0.00 0.00 86 1005.7
20260905085342 46 271 0.0 2.0 0.00 0.00 0.00 87 1005.7
20260905084842 45 284 2.0 3.0 0.00 0.00 0.00 88 1005.7
20260905084342 45 302 0.0 3.0 0.00 0.00 0.00 88 1005.6
20260905083842 45 275 1.0 2.0 0.00 0.00 0.00 90 1005.6
20260905083342 44 61 0.0 3.0 0.00 0.00 0.00 92 1005.6
20260905083243 44 61 0.0 3.0 0.00 0.00 0.00 92 1005.5
20260905082842 43 0 1.0 2.0 0.00 0.00 0.00 92 1005.5
20260905082342 43 338 0.0 2.0 0.00 0.00 0.00 92 1005.5
20260905082143 43 338 0.0 4.0 0.00 0.00 0.00 92 1005.4
20260905081842 43 21 1.0 4.0 0.00 0.00 0.00 93 1005.4
20260905081342 43 312 0.0 4.0 0.00 0.00 0.00 95 1005.4
20260905081043 43 7 1.0 4.0 0.00 0.00 0.00 94 1005.4
20260905080842 42 323 0.0 4.0 0.00 0.00 0.00 95 1005.4
20260905080342 42 296 1.0 3.0 0.00 0.01 0.00 95 1005.3
20260905075944 42 324 1.0 3.0 0.00 0.01 0.00 95 1005.3
20260905075842 42 236 0.0 3.0 0.00 0.01 0.00 95 1005.3
20260905075342 42 288 2.0 5.0 0.00 0.01 0.00 95 1005.3
20260905074842 42 291 1.0 3.0 0.00 0.01 0.00 95 1005.2
20260905074342 42 299 1.0 2.0 0.00 0.01 0.00 95 1005.2
20260905073842 42 309 2.0 2.0 0.00 0.01 0.00 95 1005.1
20260905073743 42 274 0.0 0.0 0.00 0.01 0.00 95 1005.1
20260905073342 42 274 0.0 0.0 0.00 0.01 0.00 95 1005.1
20260905072842 42 274 0.0 0.0 0.00 0.01 0.00 95 1005.0
20260905072643 42 274 0.0 0.0 0.00 0.01 0.00 95 1005.0
20260905072342 42 274 0.0 3.0 0.00 0.01 0.00 95 1005.0
20260905071842 42 322 0.0 2.0 0.00 0.01 0.00 95 1004.8
20260905071545 42 317 1.0 1.0 0.00 0.01 0.00 95 1004.8
20260905071342 42 299 0.0 1.0 0.00 0.01 0.00 95 1004.8
20260905070842 42 293 0.0 2.0 0.00 0.01 0.00 95 1004.7
20260905070444 42 302 1.0 2.0 0.00 0.01 0.00 96 1004.7
20260905070342 42 313 2.0 2.0 0.00 0.10 0.00 96 1004.7
20260905065842 42 53 0.0 0.0 0.00 0.10 0.00 96 1004.5
20260905065342 42 312 0.0 0.0 0.00 0.10 0.00 96 1004.5
20260905064842 42 312 0.0 0.0 0.00 0.10 0.00 96 1004.5
20260905064342 42 312 0.0 0.0 0.00 0.10 0.00 97 1004.5
20260905064244 42 312 0.0 0.0 0.00 0.10 0.00 97 1004.4
20260905063842 42 312 0.0 0.0 0.00 0.10 0.00 97 1004.4
20260905063342 42 312 0.0 0.0 0.00 0.10 0.00 97 1004.3
20260905063144 42 312 0.0 0.0 0.00 0.10 0.00 97 1004.3
20260905062842 42 312 0.0 0.0 0.00 0.10 0.00 97 1004.3
20260905062342 42 312 0.0 0.0 0.00 0.10 0.00 97 1004.2
20260905062044 42 312 0.0 3.0 0.00 0.10 0.00 97 1004.2
20260905061842 41 312 0.0 3.0 0.00 0.10 0.00 97 1004.2
20260905061342 42 71 0.0 0.0 0.00 0.10 0.00 97 1004.2
20260905060944 42 71 0.0 0.0 0.00 0.10 0.00 97 1004.1
20260905060842 42 71 0.0 0.0 0.00 0.10 0.00 97 1004.1
20260905060342 42 71 0.0 0.0 0.00 0.11 0.00 97 1003.9
20260905055842 42 71 0.0 0.0 0.00 0.11 0.00 97 1003.9
20260905055342 42 71 0.0 0.0 0.00 0.11 0.00 97 1003.9
20260905054843 42 71 0.0 0.0 0.00 0.11 0.00 97 1003.9
20260905054744 42 71 0.0 0.0 0.00 0.11 0.00 97 1003.9
20260905054343 42 71 0.0 0.0 0.00 0.11 0.00 97 1003.8
20260905053843 41 71 0.0 0.0 0.00 0.11 0.00 97 1003.7
20260905053644 41 71 0.0 0.0 0.00 0.11 0.00 97 1003.7
20260905053343 41 71 0.0 0.0 0.00 0.11 0.00 97 1003.8
20260905052843 41 71 0.0 0.0 0.00 0.11 0.00 97 1003.7
20260905052546 41 71 0.0 0.0 0.00 0.11 0.00 97 1003.7
20260905052343 41 71 0.0 0.0 0.00 0.11 0.00 97 1003.7
20260905051843 41 71 0.0 0.0 0.00 0.11 0.00 97 1003.7
20260905051444 41 71 0.0 0.0 0.00 0.11 0.00 97 1003.7
20260905051343 41 71 0.0 0.0 0.00 0.11 0.00 97 1003.7
20260905050843 41 71 0.0 0.0 0.00 0.11 0.00 97 1003.6
20260905050343 41 71 0.0 0.0 0.00 0.11 0.00 97 1003.6
20260905045843 41 71 0.0 0.0 0.00 0.11 0.00 97 1003.6
20260905045343 41 71 0.0 0.0 0.00 0.11 0.00 97 1003.6
20260905045244 41 71 0.0 0.0 0.00 0.11 0.00 97 1003.6
20260905044843 41 71 0.0 0.0 0.00 0.11 0.00 97 1003.6
20260905044343 41 71 0.0 0.0 0.00 0.11 0.00 97 1003.6
20260905044144 41 71 0.0 0.0 0.00 0.11 0.00 97 1003.5
20260905043843 41 71 0.0 0.0 0.00 0.11 0.00 97 1003.5
20260905043343 41 71 0.0 0.0 0.00 0.11 0.00 97 1003.5
20260905043044 41 71 0.0 0.0 0.00 0.11 0.00 96 1003.6
20260905042843 41 71 0.0 0.0 0.00 0.11 0.00 96 1003.5
20260905042343 41 71 0.0 0.0 0.00 0.11 0.00 97 1003.4
20260905041944 42 71 0.0 0.0 0.00 0.11 0.00 97 1003.4
20260905041843 42 71 0.0 0.0 0.00 0.11 0.00 97 1003.4
20260905041343 42 71 0.0 0.0 0.00 0.11 0.00 97 1003.4
20260905040843 42 71 0.0 0.0 0.00 0.11 0.00 97 1003.4
20260905040343 42 71 0.0 0.0 0.00 0.11 0.00 97 1003.4
20260905035843 42 71 0.0 0.0 0.00 0.11 0.00 97 1003.4
20260905035744 42 71 0.0 0.0 0.00 0.11 0.00 97 1003.4
20260905035343 42 71 0.0 0.0 0.00 0.11 0.00 97 1003.4
20260905034843 42 71 0.0 0.0 0.00 0.11 0.00 97 1003.4
20260905034644 42 71 0.0 0.0 0.00 0.11 0.00 97 1003.4
20260905034343 42 71 0.0 0.0 0.00 0.11 0.00 97 1003.4
20260905033843 42 71 0.0 0.0 0.00 0.11 0.00 96 1003.4
20260905033544 42 71 0.0 0.0 0.00 0.11 0.00 96 1003.4
20260905033343 42 71 0.0 0.0 0.00 0.11 0.00 96 1003.4
20260905032843 42 71 0.0 0.0 0.00 0.11 0.00 96 1003.4
20260905032444 42 71 0.0 0.0 0.00 0.11 0.00 96 1003.4
20260905032343 42 71 0.0 0.0 0.00 0.11 0.00 96 1003.4
20260905031843 42 71 0.0 0.0 0.00 0.11 0.00 96 1003.4
20260905031343 42 71 0.0 0.0 0.00 0.11 0.00 96 1003.3
20260905030843 42 71 0.0 0.0 0.00 0.11 0.00 95 1003.3
20260905030343 42 71 0.0 0.0 0.00 0.11 0.00 95 1003.3
20260905030244 42 71 0.0 0.0 0.00 0.11 0.00 95 1003.3
20260905025843 42 71 0.0 0.0 0.00 0.11 0.00 95 1003.3
20260905025343 42 71 0.0 0.0 0.00 0.11 0.00 95 1003.2
20260905025145 42 71 0.0 0.0 0.00 0.11 0.00 95 1003.2
20260905024843 42 71 0.0 0.0 0.00 0.11 0.00 95 1003.2
20260905024343 42 71 0.0 0.0 0.00 0.11 0.00 95 1003.2
20260905024044 42 71 0.0 0.0 0.00 0.11 0.00 95 1003.0
20260905023843 42 71 0.0 0.0 0.00 0.11 0.00 95 1003.2
20260905023343 42 71 0.0 0.0 0.00 0.11 0.00 95 1003.2
20260905022944 42 71 0.0 0.0 0.00 0.11 0.00 95 1003.0
20260905022843 42 71 0.0 0.0 0.00 0.11 0.00 95 1003.0
20260905022343 42 71 0.0 0.0 0.00 0.11 0.00 95 1003.0
20260905021843 42 71 0.0 0.0 0.00 0.11 0.00 95 1003.0
20260905021343 42 71 0.0 0.0 0.00 0.11 0.00 95 1002.9
20260905020843 42 71 0.0 0.0 0.00 0.11 0.00 95 1002.9
20260905020744 43 71 0.0 0.0 0.00 0.11 0.00 95 1002.9
20260905020343 43 71 0.0 0.0 0.00 0.11 0.00 95 1002.9
20260905015843 43 71 0.0 0.0 0.00 0.11 0.00 95 1002.9
20260905015644 43 71 0.0 0.0 0.00 0.11 0.00 95 1002.9
20260905015343 43 71 0.0 0.0 0.00 0.11 0.00 95 1002.9
20260905014843 43 71 0.0 0.0 0.00 0.11 0.00 95 1002.9
20260905014544 43 71 0.0 0.0 0.00 0.11 0.00 95 1002.9
20260905014343 43 71 0.0 0.0 0.00 0.11 0.00 95 1002.9
20260905013843 43 71 0.0 0.0 0.00 0.11 0.00 95 1002.8
20260905013444 43 71 0.0 0.0 0.00 0.11 0.00 95 1002.8
20260905013343 43 71 0.0 0.0 0.00 0.11 0.00 95 1002.8
20260905012843 43 71 0.0 0.0 0.00 0.11 0.00 95 1002.8
20260905012343 43 71 0.0 0.0 0.00 0.11 0.00 94 1002.8
20260905011843 43 71 0.0 0.0 0.00 0.11 0.00 94 1002.8